Retour au catalogue

STARLINK-30503

ActifCommunicationsVLEO
NORAD 57975·PAYLOAD·🇺🇸 United States

Lancé Sep 30, 2023 depuis Cape Canaveral Space Force Station

Loading…

Prochains Passages (prochaines 24 heures)

TLE

FraisSource: CelesTrak SupGP

Époque: Sep 15, 2026, 02:27 UTC

1 57975C 23151M   26258.10256944  .00026369  00000+0  95525-3 0  2581
2 57975  43.0019 346.6232 0001539 263.1336 344.4050 15.27559975    16

Suivez STARLINK-30503 en temps réel avec AllMySat

Download on the App Store